This is the latest recevied weather packets stored in our database for station/object N5ATR. If no packets are shown the sender has not sent any weather packets the latest 10 day(s).
| Time | Temp. | Humidity | Pressure | Rain* | Wind** | Luminosity | Snow |
|---|---|---|---|---|---|---|---|
| 1777845303 | 18.33° C | 24% | 1016.6 hPa | 0 mm | - | 551 W/m² | - |
| 1777845000 | 18.89° C | 25% | 1016.7 hPa | 0 mm | - | 562 W/m² | - |
| 1777844698 | 18.33° C | 24% | 1016.9 hPa | 0 mm | - | 574 W/m² | - |
| 1777844395 | 18.33° C | 26% | 1016.9 hPa | 0 mm | - | 586 W/m² | - |
| 1777844093 | 18.33° C | 27% | 1017 hPa | 0 mm | - | 599 W/m² | - |
| 1777843789 | 18.89° C | 24% | 1017 hPa | 0 mm | - | 610 W/m² | - |
| 1777843487 | 18.33° C | 26% | 1017.2 hPa | 0 mm | - | 624 W/m² | - |
| 1777843184 | 18.33° C | 25% | 1017.1 hPa | 0 mm | - | 635 W/m² | - |
| 1777842881 | 17.78° C | 27% | 1017.5 hPa | 0 mm | - | 647 W/m² | - |
| 1777842576 | 18.33° C | 29% | 1017.6 hPa | 0 mm | - | 658 W/m² | - |
| 1777842274 | 18.33° C | 27% | 1017.3 hPa | 0 mm | - | 668 W/m² | - |
| 1777841973 | 18.33° C | 28% | 1017.7 hPa | 0 mm | - | 680 W/m² | - |
| 1777841671 | 17.78° C | 29% | 1018 hPa | 0 mm | - | 690 W/m² | - |
| 1777841367 | 17.78° C | 30% | 1018 hPa | 0 mm | - | 698 W/m² | - |
| 1777841064 | 17.22° C | 31% | 1018 hPa | 0 mm | - | 711 W/m² | - |
| 1777840761 | 17.78° C | 32% | 1018.2 hPa | 0 mm | - | 719 W/m² | - |
| 1777840459 | 18.33° C | 31% | 1018 hPa | 0 mm | - | 728 W/m² | - |
| 1777840155 | 17.78° C | 32% | 1018.1 hPa | 0 mm | - | 736 W/m² | - |
| 1777839854 | 17.78° C | 34% | 1018.2 hPa | 0 mm | - | 744 W/m² | - |
| 1777839552 | 18.33° C | 32% | 1018.5 hPa | 0 mm | - | 751 W/m² | - |
| 1777839248 | 17.78° C | 31% | 1018.6 hPa | 0 mm | - | 759 W/m² | - |
| 1777838946 | 17.22° C | 31% | 1018.5 hPa | 0 mm | - | 766 W/m² | - |
| 1777838642 | 16.67° C | 30% | 1018.7 hPa | 0 mm | - | 777 W/m² | - |
| 1777838339 | 16.67° C | 34% | 1018.6 hPa | 0 mm | - | 794 W/m² | - |
| 1777838035 | 16.67° C | 33% | 1018.8 hPa | 0 mm | - | 808 W/m² | - |
* Rain latest hour (hover to see other rain measurements)
** Current wind speed in m/s (hover to see current wind gust speed)